{"data":{"norad_id":58735,"intl_designator":"2024-005H","name":"STARLINK-31157","alt_names":[],"object_type":"PAYLOAD","status":"ACTIVE","operator":null,"country":"US","launch_date":"2024-01-07","launch_site_code":"AFETR","launch_vehicle":null,"mission":null,"orbit_class":"UNKNOWN","rcs_meters":null,"size_class":null,"mass_kg":null,"dimensions":null,"purposes":["comms"],"wikipedia_slug":null,"has_3d_model":false,"image_url":null,"decayed_at":null,"tle_current":{"epoch":"2026-09-20T16:00:01.999584Z","epoch_age_seconds":135305,"freshness":"FRESH","line1":"1 58735U 24005H   26263.66668981  .00020601  00000+0  75632-3 0  9992","line2":"2 58735  42.9993 198.3761 0001338 259.2283 176.3563 15.27568259  5878","mean_motion":15.27568259,"eccentricity":0.0001338,"inclination_deg":42.9993,"raan_deg":198.3761,"arg_perigee_deg":259.2283,"mean_anomaly_deg":176.3563,"bstar":0.00075632,"rev_number":587,"period_min":94.267473254693,"perigee_km":482.16622163898,"apogee_km":484.00228444629,"semimajor_km":6861.2212530426,"source":"CELESTRAK","updated_at":"2026-09-21T09:00:33.952572Z"}}}